Weather in Zapadnyy

Russia / Chelyabinsk Oblast     55°06′47″N   61°16′28″E
temp.,
°C
wind,
m/s
gust,
m/s
humid.,
%
clouds,
%
prec.,
mm/h
press.,
hPa
HPBL,
m
17 april, sat
sat1723:00+6ne3566100 0.0 1026155
02:00+5ene2473100 0.0 1026119
05:00+5e357597 0.0 1026132
08:00+5se2471100 0.0 1026210
11:00+6sse2363100 0.0 1025319
14:00+7s236593 0.0 1024470
17:00+10wsw236414 0.0 1022672
20:00+9sse127392 0.0 102113
18 april, sun
sun1823:00+6wsw22834 0.0 102014
02:00+4nnw36730 0.0 102094
05:00+2nnw36745 0.0 1020104
08:00+5nw510671 0.0 1019419
11:00+9nnw79505 0.0 10181410
14:00+6nne8973100 0.0 1021975
17:00+4ne81048100 0.1 10241522
20:00+2ne7104310 0.0 1027950
19 april, mon
mon1923:00−1ene610484 0.0 1030725
02:00−2ene58500 0.0 1032854
05:00−3ene47490 0.0 1034790
08:00−2ene57380 0.0 10351181
11:000ne56325 0.0 10351615
14:00+2ne56305 0.0 10351826
17:00+2ne66315 0.0 10351868
20:00−1ene36415 0.0 1036127
20 april, tue
tue2023:00−1e11460 0.0 103613
02:00−2w11450 0.0 103711
05:00−3wnw34500 0.0 103885
08:000wnw34381 0.0 1038319
11:00+4nw34315 0.0 10371337
14:00+7wnw45305 0.0 10351613
17:00+8nw56290 0.0 10331752
20:00+5wnw48470 0.0 1034171
21 april, wed
wed2123:00+2wnw49580 0.0 1034167
02:00+1nw37620 0.0 1034111
05:000wnw46630 0.0 1035107
08:00+4nw48500 0.0 1036344
11:00+9nw56380 0.0 10351010
14:00+12nnw45310 0.0 10341347
17:00+13nw34290 0.0 10331588
20:00+10nnw22420 0.0 103412